Time,TemperatureF,DewpointF,PressureIn,WindDirection,WindDirectionDegrees,WindSpeedMPH,WindSpeedGustMPH,Humidity,HourlyPrecipIn,Conditions,Clouds,dailyrainin,SoftwareType,DateUTC
2013-09-09 00:03:00,54.1,46.0,29.86,NNE,25,0.0,0.0,74,0.00,CLR,SKC,0.00,WeatherDisplay:10.37,2013-09-09 06:03:00,
2013-09-09 00:09:00,54.0,45.9,29.86,ESE,107,3.5,3.5,74,0.00,CLR,SKC,0.00,WeatherDisplay:10.37,2013-09-09 06:09:00,
2013-09-09 00:14:00,54.2,45.7,29.85,ESE,107,0.0,0.0,73,0.00,CLR,SKC,0.00,WeatherDisplay:10.37,2013-09-09 06:14:00,
2013-09-09 00:19:00,54.3,45.8,29.85,SSE,149,2.3,0.0,73,0.00,CLR,SKC,0.00,WeatherDisplay:10.37,2013-09-09 06:19:00,
2013-09-09 00:24:00,54.4,45.9,29.85,SSE,149,1.1,0.0,73,0.00,CLR,SKC,0.00,WeatherDisplay:10.37,2013-09-09 06:24:00,
2013-09-09 00:29:00,54.3,46.5,29.85,SSE,149,0.0,0.0,75,0.00,CLR,SKC,0.00,WeatherDisplay:10.37,2013-09-09 06:29:00,
2013-09-09 00:34:00,54.2,46.4,29.85,SSE,149,0.0,0.0,75,0.00,CLR,SKC,0.00,WeatherDisplay:10.37,2013-09-09 06:34:00,
2013-09-09 00:39:00,53.9,46.9,29.85,SSE,149,0.0,0.0,77,0.00,CLR,SKC,0.00,WeatherDisplay:10.37,2013-09-09 06:39:00,
2013-09-09 00:44:00,53.5,46.1,29.86,SSE,149,1.1,0.0,76,0.00,CLR,SKC,0.00,WeatherDisplay:10.37,2013-09-09 06:44:00,
2013-09-09 00:49:00,53.3,45.2,29.86,SSE,149,0.0,0.0,74,0.00,CLR,SKC,0.00,WeatherDisplay:10.37,2013-09-09 06:49:00,
2013-09-09 00:54:00,53.2,45.5,29.86,SSE,149,0.0,0.0,75,0.00,CLR,SKC,0.00,WeatherDisplay:10.37,2013-09-09 06:54:00,
2013-09-09 00:59:00,53.1,45.7,29.86,SSE,149,0.0,0.0,76,0.00,CLR,SKC,0.00,WeatherDisplay:10.37,2013-09-09 06:59:00,
2013-09-09 01:04:00,52.8,46.5,29.86,SSE,149,0.0,0.0,79,0.00,CLR,SKC,0.00,WeatherDisplay:10.37,2013-09-09 07:04:00,
2013-09-09 01:09:00,52.3,45.6,29.86,SSE,149,1.1,1.1,78,0.00,CLR,SKC,0.00,WeatherDisplay:10.37,2013-09-09 07:09:00,
2013-09-09 01:14:00,52.0,46.0,29.86,SSE,149,0.0,0.0,80,0.00,CLR,SKC,0.00,WeatherDisplay:10.37,2013-09-09 07:14:00,
2013-09-09 01:19:00,51.6,45.6,29.86,SSE,165,0.0,0.0,80,0.00,CLR,SKC,0.00,WeatherDisplay:10.37,2013-09-09 07:19:00,
2013-09-09 01:25:00,51.5,45.5,29.86,SSE,165,0.0,0.0,80,0.00,CLR,SKC,0.00,WeatherDisplay:10.37,2013-09-09 07:25:00,
2013-09-09 01:30:00,51.3,45.3,29.86,SSE,165,1.1,1.1,80,0.00,CLR,SKC,0.00,WeatherDisplay:10.37,2013-09-09 07:30:00,
2013-09-09 01:35:00,51.5,45.9,29.86,SSE,165,0.0,0.0,81,0.00,CLR,SKC,0.00,WeatherDisplay:10.37,2013-09-09 07:35:00,
2013-09-09 01:40:00,51.4,45.8,29.85,SSE,165,2.3,0.0,81,0.00,CLR,SKC,0.00,WeatherDisplay:10.37,2013-09-09 07:40:00,
2013-09-09 01:45:00,51.3,45.7,29.86,SSE,165,0.0,0.0,81,0.00,CLR,SKC,0.00,WeatherDisplay:10.37,2013-09-09 07:45:00,
2013-09-09 01:50:00,51.3,45.7,29.86,SSE,165,0.0,0.0,81,0.00,CLR,SKC,0.00,WeatherDisplay:10.37,2013-09-09 07:50:00,
2013-09-09 01:55:00,51.2,45.6,29.86,SSE,165,0.0,0.0,81,0.00,CLR,SKC,0.00,WeatherDisplay:10.37,2013-09-09 07:55:00,
2013-09-09 02:00:00,51.1,46.1,29.86,SSE,165,1.1,1.1,83,0.00,CLR,SKC,0.00,WeatherDisplay:10.37,2013-09-09 08:00:00,
2013-09-09 02:05:00,51.1,46.1,29.86,SSE,165,0.0,0.0,83,0.00,CLR,SKC,0.00,WeatherDisplay:10.37,2013-09-09 08:05:00,
2013-09-09 02:10:00,51.0,45.7,29.86,SSE,165,0.0,0.2,82,0.00,CLR,SKC,0.00,WeatherDisplay:10.37,2013-09-09 08:10:00,
2013-09-09 02:15:00,50.8,45.8,29.86,SSE,165,0.0,0.0,83,0.00,CLR,SKC,0.00,WeatherDisplay:10.37,2013-09-09 08:15:00,
2013-09-09 02:20:00,50.9,45.6,29.86,WSW,244,1.0,1.0,82,0.00,CLR,SKC,0.00,WeatherDisplay:10.37,2013-09-09 08:20:00,
2013-09-09 02:25:00,50.9,44.9,29.86,WSW,244,1.1,0.0,80,0.00,CLR,SKC,0.00,WeatherDisplay:10.37,2013-09-09 08:25:00,
2013-09-09 02:31:00,51.0,45.7,29.86,WSW,244,0.0,0.0,82,0.00,CLR,SKC,0.00,WeatherDisplay:10.37,2013-09-09 08:31:00,
2013-09-09 02:36:00,50.8,45.5,29.86,WSW,244,0.0,0.0,82,0.00,CLR,SKC,0.00,WeatherDisplay:10.37,2013-09-09 08:36:00,
2013-09-09 02:41:00,50.4,45.4,29.86,WSW,244,0.0,0.0,83,0.00,CLR,SKC,0.00,WeatherDisplay:10.37,2013-09-09 08:41:00,
2013-09-09 02:46:00,50.3,45.3,29.86,WSW,244,0.0,0.0,83,0.00,CLR,SKC,0.00,WeatherDisplay:10.37,2013-09-09 08:46:00,
2013-09-09 02:51:00,50.1,45.1,29.86,WSW,244,0.0,0.0,83,0.00,CLR,SKC,0.00,WeatherDisplay:10.37,2013-09-09 08:51:00,
2013-09-09 02:56:00,50.2,45.6,29.86,WSW,244,0.0,0.0,84,0.00,CLR,SKC,0.00,WeatherDisplay:10.37,2013-09-09 08:56:00,
2013-09-09 03:01:00,50.4,46.1,29.86,WSW,244,0.0,0.0,85,0.00,CLR,SKC,0.00,WeatherDisplay:10.37,2013-09-09 09:01:00,
2013-09-09 03:05:00,50.3,45.6,29.86,WSW,244,0.0,0.0,84,0.00,CLR,SKC,0.00,WeatherDisplay:10.37,2013-09-09 09:05:00,
2013-09-09 03:10:00,50.4,46.1,29.86,WSW,244,0.0,0.0,85,0.00,CLR,SKC,0.00,WeatherDisplay:10.37,2013-09-09 09:10:00,
2013-09-09 03:16:00,50.3,45.6,29.86,WSW,244,0.0,1.0,84,0.00,CLR,SKC,0.00,WeatherDisplay:10.37,2013-09-09 09:16:00,
2013-09-09 03:21:00,50.4,45.4,29.86,WSW,244,1.1,1.1,83,0.00,CLR,SKC,0.00,WeatherDisplay:10.37,2013-09-09 09:21:00,
2013-09-09 03:26:00,50.5,45.8,29.86,WSW,244,1.1,0.0,84,0.00,CLR,SKC,0.00,WeatherDisplay:10.37,2013-09-09 09:26:00,
2013-09-09 03:31:00,50.6,46.3,29.86,WSW,244,1.1,1.1,85,0.00,CLR,SKC,0.00,WeatherDisplay:10.37,2013-09-09 09:31:00,
2013-09-09 03:36:00,50.9,46.6,29.86,WSW,244,0.0,0.4,85,0.00,CLR,SKC,0.00,WeatherDisplay:10.37,2013-09-09 09:36:00,
2013-09-09 03:41:00,51.3,45.7,29.86,SW,226,1.1,1.1,81,0.00,CLR,SKC,0.00,WeatherDisplay:10.37,2013-09-09 09:41:00,
2013-09-09 03:47:00,53.1,45.7,29.86,SW,224,3.5,3.5,76,0.00,CLR,SKC,0.00,WeatherDisplay:10.37,2013-09-09 09:47:00,
2013-09-09 03:52:00,54.5,46.4,29.86,SSW,192,1.1,1.1,74,0.00,CLR,SKC,0.00,WeatherDisplay:10.37,2013-09-09 09:52:00,
2013-09-09 03:57:00,55.2,47.4,29.86,SSW,192,1.0,0.0,75,0.00,CLR,SKC,0.00,WeatherDisplay:10.37,2013-09-09 09:57:00,
2013-09-09 04:02:00,54.3,46.2,29.86,ENE,71,0.0,0.0,74,0.00,CLR,SKC,0.00,WeatherDisplay:10.37,2013-09-09 10:02:00,
2013-09-09 04:07:00,53.5,46.1,29.86,ENE,71,0.0,0.0,76,0.00,CLR,SKC,0.00,WeatherDisplay:10.37,2013-09-09 10:07:00,
2013-09-09 04:12:00,53.1,46.4,29.86,ENE,73,1.1,0.0,78,0.00,CLR,SKC,0.00,WeatherDisplay:10.37,2013-09-09 10:12:00,
2013-09-09 04:17:00,52.7,46.7,29.86,North,11,1.1,1.1,80,0.00,CLR,SKC,0.00,WeatherDisplay:10.37,2013-09-09 10:17:00,
2013-09-09 04:23:00,52.9,46.9,29.86,North,11,0.0,0.0,80,0.00,CLR,SKC,0.00,WeatherDisplay:10.37,2013-09-09 10:23:00,
2013-09-09 04:29:00,52.9,46.9,29.86,North,11,0.0,0.0,80,0.00,CLR,SKC,0.00,WeatherDisplay:10.37,2013-09-09 10:29:00,
2013-09-09 04:34:00,52.9,47.2,29.86,NW,325,1.1,1.1,81,0.00,CLR,SKC,0.00,WeatherDisplay:10.37,2013-09-09 10:34:00,
2013-09-09 04:39:00,52.9,47.2,29.86,NW,325,0.0,0.0,81,0.00,CLR,SKC,0.00,WeatherDisplay:10.37,2013-09-09 10:39:00,
2013-09-09 04:44:00,53.1,47.7,29.86,NW,311,1.1,1.1,82,0.00,CLR,SKC,0.00,WeatherDisplay:10.37,2013-09-09 10:44:00,
2013-09-09 04:49:00,53.2,46.5,29.86,NW,311,0.0,0.0,78,0.00,CLR,SKC,0.00,WeatherDisplay:10.37,2013-09-09 10:49:00,
2013-09-09 04:54:00,53.8,46.8,29.86,NW,311,0.0,0.0,77,0.00,CLR,SKC,0.00,WeatherDisplay:10.37,2013-09-09 10:54:00,
2013-09-09 04:59:00,54.1,46.7,29.86,NW,309,0.0,0.0,76,0.00,CLR,SKC,0.00,WeatherDisplay:10.37,2013-09-09 10:59:00,
2013-09-09 05:04:00,54.6,46.8,29.86,SW,220,2.3,2.3,75,0.00,CLR,SKC,0.00,WeatherDisplay:10.37,2013-09-09 11:04:00,
2013-09-09 05:10:00,54.8,46.7,29.86,SW,220,1.1,1.1,74,0.00,CLR,SKC,0.00,WeatherDisplay:10.37,2013-09-09 11:10:00,
2013-09-09 05:15:00,55.2,46.7,29.86,SW,221,1.1,1.1,73,0.00,CLR,SKC,0.00,WeatherDisplay:10.37,2013-09-09 11:15:00,
2013-09-09 05:20:00,55.3,47.2,29.86,SW,218,1.1,1.1,74,0.00,CLR,SKC,0.00,WeatherDisplay:10.37,2013-09-09 11:20:00,
2013-09-09 05:25:00,55.3,46.8,29.86,SW,218,0.0,0.0,73,0.00,CLR,SKC,0.00,WeatherDisplay:10.37,2013-09-09 11:25:00,
2013-09-09 05:30:00,55.3,47.9,29.86,SW,218,0.0,0.0,76,0.00,CLR,SKC,0.00,WeatherDisplay:10.37,2013-09-09 11:30:00,
2013-09-09 05:35:00,54.9,47.1,29.86,ESE,117,1.1,0.0,75,0.00,CLR,SKC,0.00,WeatherDisplay:10.37,2013-09-09 11:35:00,
2013-09-09 05:40:00,54.4,47.3,29.86,East,82,0.0,0.0,77,0.00,CLR,SKC,0.00,WeatherDisplay:10.37,2013-09-09 11:40:00,
2013-09-09 05:45:00,54.2,46.8,29.86,East,82,0.0,0.0,76,0.00,CLR,SKC,0.00,WeatherDisplay:10.37,2013-09-09 11:45:00,
2013-09-09 05:50:00,54.0,48.0,29.87,East,82,0.0,0.0,80,0.00,CLR,SKC,0.00,WeatherDisplay:10.37,2013-09-09 11:50:00,
2013-09-09 05:55:00,53.9,47.9,29.86,East,82,0.0,0.0,80,0.00,CLR,SKC,0.00,WeatherDisplay:10.37,2013-09-09 11:55:00,
2013-09-09 06:00:00,53.6,47.6,29.87,East,82,0.0,0.0,80,0.00,CLR,SKC,0.00,WeatherDisplay:10.37,2013-09-09 12:00:00,
2013-09-09 06:05:00,53.5,48.1,29.87,East,82,0.0,0.0,82,0.00,CLR,SKC,0.00,WeatherDisplay:10.37,2013-09-09 12:05:00,
2013-09-09 06:10:00,53.5,47.8,29.87,SSW,207,2.3,2.3,81,0.00,CLR,SKC,0.00,WeatherDisplay:10.37,2013-09-09 12:10:00,
2013-09-09 06:15:00,53.5,47.1,29.87,SSW,207,2.3,2.3,79,0.00,CLR,SKC,0.00,WeatherDisplay:10.37,2013-09-09 12:15:00,
2013-09-09 06:20:00,54.5,47.8,29.87,SW,215,1.1,1.1,78,0.00,CLR,SKC,0.00,WeatherDisplay:10.37,2013-09-09 12:20:00,
2013-09-09 06:25:00,55.0,47.2,29.87,SSW,209,2.3,2.3,75,0.00,CLR,SKC,0.00,WeatherDisplay:10.37,2013-09-09 12:25:00,
2013-09-09 06:30:00,55.7,47.9,29.88,SSW,196,1.1,1.1,75,0.00,CLR,SKC,0.00,WeatherDisplay:10.37,2013-09-09 12:30:00,
2013-09-09 06:35:00,56.1,47.9,29.88,SSW,203,3.5,3.5,74,0.00,CLR,SKC,0.00,WeatherDisplay:10.37,2013-09-09 12:35:00,
2013-09-09 06:40:00,56.4,48.6,29.88,SSW,196,3.5,3.5,75,0.00,CLR,SKC,0.00,WeatherDisplay:10.37,2013-09-09 12:40:00,
2013-09-09 06:45:00,57.2,50.1,29.88,South,180,2.3,2.3,77,0.00,CLR,SKC,0.00,WeatherDisplay:10.37,2013-09-09 12:45:00,
2013-09-09 06:50:00,57.3,49.8,29.88,SW,234,3.5,3.5,76,0.00,CLR,SKC,0.00,WeatherDisplay:10.37,2013-09-09 12:50:00,
2013-09-09 06:55:00,57.1,50.0,29.88,SW,225,2.3,2.3,77,0.00,CLR,SKC,0.00,WeatherDisplay:10.37,2013-09-09 12:55:00,
2013-09-09 07:00:00,56.7,50.6,29.88,SW,225,0.0,0.0,80,0.00,CLR,SKC,0.00,WeatherDisplay:10.37,2013-09-09 13:00:00,
2013-09-09 07:05:00,56.4,51.0,29.89,SW,225,0.0,0.1,82,0.00,CLR,SKC,0.00,WeatherDisplay:10.37,2013-09-09 13:05:00,
2013-09-09 07:11:00,55.7,51.3,29.89,SW,225,0.0,0.0,85,0.00,CLR,SKC,0.00,WeatherDisplay:10.37,2013-09-09 13:11:00,
2013-09-09 07:16:00,55.3,50.9,29.89,SW,221,0.0,0.0,85,0.00,CLR,SKC,0.00,WeatherDisplay:10.37,2013-09-09 13:16:00,
2013-09-09 07:21:00,55.0,50.6,29.89,SW,221,0.0,0.0,85,0.00,CLR,SKC,0.00,WeatherDisplay:10.37,2013-09-09 13:21:00,
2013-09-09 07:26:00,54.7,50.6,29.90,SW,221,0.0,0.0,86,0.00,CLR,SKC,0.00,WeatherDisplay:10.37,2013-09-09 13:26:00,
2013-09-09 07:31:00,54.3,49.9,29.90,SW,221,0.0,0.0,85,0.00,CLR,SKC,0.00,WeatherDisplay:10.37,2013-09-09 13:31:00,
2013-09-09 07:36:00,54.2,50.4,29.90,SW,221,0.0,0.0,87,0.00,CLR,SKC,0.00,WeatherDisplay:10.37,2013-09-09 13:36:00,
2013-09-09 07:41:00,54.0,50.3,29.90,SW,221,0.0,0.0,87,0.00,CLR,SKC,0.00,WeatherDisplay:10.37,2013-09-09 13:41:00,
2013-09-09 07:46:00,53.9,50.4,29.90,SW,221,0.0,0.0,88,0.00,CLR,SKC,0.00,WeatherDisplay:10.37,2013-09-09 13:46:00,
2013-09-09 07:52:00,53.6,49.8,29.90,SW,221,0.0,0.0,87,0.00,CLR,SKC,0.00,WeatherDisplay:10.37,2013-09-09 13:52:00,
2013-09-09 07:57:00,53.7,49.6,29.91,SW,221,1.1,0.0,86,0.00,CLR,SKC,0.00,WeatherDisplay:10.37,2013-09-09 13:57:00,
2013-09-09 08:02:00,53.8,49.4,29.90,SW,234,2.0,2.0,85,0.00,CLR,SKC,0.00,WeatherDisplay:10.37,2013-09-09 14:02:00,
2013-09-09 08:07:00,54.1,49.7,29.90,SW,234,1.1,1.1,85,0.00,CLR,SKC,0.00,WeatherDisplay:10.37,2013-09-09 14:07:00,
2013-09-09 08:12:00,54.3,49.2,29.91,SW,234,2.3,2.3,83,0.00,CLR,SKC,0.00,WeatherDisplay:10.37,2013-09-09 14:12:00,
2013-09-09 08:17:00,54.5,49.1,29.90,SW,234,2.3,2.3,82,0.00,CLR,SKC,0.00,WeatherDisplay:10.37,2013-09-09 14:17:00,
2013-09-09 08:22:00,54.8,49.4,29.90,SW,225,2.0,2.0,82,0.00,CLR,SKC,0.00,WeatherDisplay:10.37,2013-09-09 14:22:00,
2013-09-09 08:27:00,55.0,48.9,29.90,SSW,211,2.3,2.3,80,0.00,CLR,SKC,0.00,WeatherDisplay:10.37,2013-09-09 14:27:00,
2013-09-09 08:32:00,55.3,49.2,29.90,SW,227,2.3,0.0,80,0.00,CLR,SKC,0.00,WeatherDisplay:10.37,2013-09-09 14:32:00,
2013-09-09 08:37:00,55.7,49.3,29.90,SSE,167,3.5,3.5,79,0.00,CLR,SKC,0.00,WeatherDisplay:10.37,2013-09-09 14:37:00,
2013-09-09 08:42:00,56.3,49.9,29.89,SW,223,3.5,3.5,79,0.00,CLR,SKC,0.00,WeatherDisplay:10.37,2013-09-09 14:42:00,
2013-09-09 08:47:00,56.9,49.8,29.89,SSE,161,3.5,3.5,77,0.00,CLR,SKC,0.00,WeatherDisplay:10.37,2013-09-09 14:47:00,
2013-09-09 08:52:00,57.5,50.0,29.89,SSW,194,3.5,3.5,76,0.00,CLR,SKC,0.00,WeatherDisplay:10.37,2013-09-09 14:52:00,
2013-09-09 08:57:00,58.1,50.2,29.89,SW,235,4.6,4.6,75,0.00,CLR,SKC,0.00,WeatherDisplay:10.37,2013-09-09 14:57:00,
2013-09-09 09:02:00,58.4,49.4,29.90,South,173,2.3,2.3,72,0.00,CLR,SKC,0.00,WeatherDisplay:10.37,2013-09-09 15:02:00,
2013-09-09 09:07:00,58.6,50.3,29.90,West,262,1.1,1.1,74,0.00,CLR,SKC,0.00,WeatherDisplay:10.37,2013-09-09 15:07:00,
2013-09-09 09:12:00,58.7,50.1,29.90,SSW,213,1.0,1.0,73,0.00,CLR,SKC,0.00,WeatherDisplay:10.37,2013-09-09 15:12:00,
2013-09-09 09:18:00,59.1,50.8,29.91,SW,230,2.0,2.0,74,0.00,CLR,SKC,0.00,WeatherDisplay:10.37,2013-09-09 15:18:00,
2013-09-09 09:23:00,59.2,49.8,29.91,SW,227,0.0,0.0,71,0.00,CLR,SKC,0.00,WeatherDisplay:10.37,2013-09-09 15:23:00,
2013-09-09 09:28:00,59.4,51.1,29.91,SW,227,0.0,0.0,74,0.00,CLR,SKC,0.00,WeatherDisplay:10.37,2013-09-09 15:28:00,
2013-09-09 09:33:00,59.6,51.3,29.91,SW,227,0.0,0.0,74,0.00,CLR,SKC,0.00,WeatherDisplay:10.37,2013-09-09 15:33:00,
2013-09-09 09:38:00,59.8,50.8,29.91,WSW,246,1.1,1.1,72,0.00,CLR,SKC,0.00,WeatherDisplay:10.37,2013-09-09 15:38:00,
2013-09-09 09:43:00,60.1,50.3,29.91,WSW,240,3.5,3.5,70,0.00,CLR,SKC,0.00,WeatherDisplay:10.37,2013-09-09 15:43:00,
2013-09-09 09:48:00,60.4,50.6,29.91,WSW,244,1.1,0.0,70,0.00,CLR,SKC,0.00,WeatherDisplay:10.37,2013-09-09 15:48:00,
2013-09-09 09:53:00,60.7,51.2,29.91,SW,229,1.1,1.1,71,0.00,CLR,SKC,0.00,WeatherDisplay:10.37,2013-09-09 15:53:00,
2013-09-09 09:58:00,61.1,50.8,29.91,SW,218,1.0,1.0,69,0.00,CLR,SKC,0.00,WeatherDisplay:10.37,2013-09-09 15:58:00,
2013-09-09 10:04:00,61.6,51.3,29.91,SSW,195,2.3,2.3,69,0.00,CLR,SKC,0.00,WeatherDisplay:10.37,2013-09-09 16:04:00,
2013-09-09 10:09:00,62.0,51.3,29.91,SSW,194,2.3,2.3,68,0.00,CLR,SKC,0.00,WeatherDisplay:10.37,2013-09-09 16:09:00,
2013-09-09 10:15:00,62.5,51.4,29.91,SW,227,1.1,1.1,67,0.00,CLR,SKC,0.00,WeatherDisplay:10.37,2013-09-09 16:15:00,
2013-09-09 10:20:00,62.8,51.7,29.91,SW,224,3.5,3.5,67,0.00,CLR,SKC,0.00,WeatherDisplay:10.37,2013-09-09 16:20:00,
2013-09-09 10:25:00,62.9,50.5,29.91,SSW,200,1.1,1.1,64,0.00,CLR,SKC,0.00,WeatherDisplay:10.37,2013-09-09 16:25:00,
2013-09-09 10:30:00,63.1,50.7,29.91,WSW,255,3.5,3.5,64,0.00,CLR,SKC,0.00,WeatherDisplay:10.37,2013-09-09 16:30:00,
2013-09-09 10:35:00,63.2,50.8,29.91,SW,228,2.3,2.3,64,0.00,CLR,SKC,0.00,WeatherDisplay:10.37,2013-09-09 16:35:00,
2013-09-09 10:40:00,63.5,51.1,29.91,SE,135,1.1,1.1,64,0.00,CLR,SKC,0.00,WeatherDisplay:10.37,2013-09-09 16:40:00,
2013-09-09 10:45:00,64.1,51.2,29.91,SE,135,2.0,2.0,63,0.00,CLR,SKC,0.00,WeatherDisplay:10.37,2013-09-09 16:45:00,
2013-09-09 10:50:00,64.7,51.4,29.91,South,182,2.3,2.3,62,0.00,CLR,SKC,0.00,WeatherDisplay:10.37,2013-09-09 16:50:00,
2013-09-09 10:55:00,65.1,52.6,29.91,South,188,1.1,1.1,64,0.00,CLR,SKC,0.00,WeatherDisplay:10.37,2013-09-09 16:55:00,
2013-09-09 11:00:00,65.6,51.3,29.91,South,182,1.1,0.0,60,0.00,CLR,SKC,0.00,WeatherDisplay:10.37,2013-09-09 17:00:00,
2013-09-09 11:05:00,65.8,50.1,29.91,SE,130,2.3,2.3,57,0.00,CLR,SKC,0.00,WeatherDisplay:10.37,2013-09-09 17:05:00,
2013-09-09 11:11:00,65.3,51.1,29.91,SSW,209,2.3,2.3,60,0.00,CLR,SKC,0.00,WeatherDisplay:10.37,2013-09-09 17:11:00,
2013-09-09 11:16:00,64.9,50.7,29.91,SW,217,1.1,1.1,60,0.00,CLR,SKC,0.00,WeatherDisplay:10.37,2013-09-09 17:16:00,
2013-09-09 11:21:00,64.9,51.1,29.91,SW,224,0.0,0.0,61,0.00,CLR,SKC,0.00,WeatherDisplay:10.37,2013-09-09 17:21:00,
2013-09-09 11:26:00,65.2,51.0,29.90,SW,224,1.1,1.1,60,0.00,CLR,SKC,0.00,WeatherDisplay:10.37,2013-09-09 17:26:00,
2013-09-09 11:31:00,65.6,51.4,29.91,South,183,0.0,2.0,60,0.00,CLR,SKC,0.00,WeatherDisplay:10.37,2013-09-09 17:31:00,
2013-09-09 11:36:00,65.6,51.8,29.91,SSW,192,0.0,2.0,61,0.00,CLR,SKC,0.00,WeatherDisplay:10.37,2013-09-09 17:36:00,
2013-09-09 11:42:00,65.3,51.5,29.91,SW,215,0.0,0.0,61,0.00,CLR,SKC,0.00,WeatherDisplay:10.37,2013-09-09 17:42:00,
2013-09-09 11:47:00,65.3,51.9,29.91,SW,231,3.5,3.5,62,0.00,CLR,SKC,0.00,WeatherDisplay:10.37,2013-09-09 17:47:00,
2013-09-09 11:52:00,65.0,51.7,29.91,SW,231,0.0,0.0,62,0.00,CLR,SKC,0.00,WeatherDisplay:10.37,2013-09-09 17:52:00,
2013-09-09 11:58:00,65.1,51.8,29.90,South,178,3.5,3.5,62,0.00,CLR,SKC,0.00,WeatherDisplay:10.37,2013-09-09 17:58:00,
2013-09-09 12:03:00,65.5,52.1,29.91,East,84,2.3,0.0,62,0.00,CLR,SKC,0.00,WeatherDisplay:10.37,2013-09-09 18:03:00,
2013-09-09 12:08:00,65.8,51.5,29.90,SSW,198,2.3,2.3,60,0.00,CLR,SKC,0.00,WeatherDisplay:10.37,2013-09-09 18:08:00,
2013-09-09 12:13:00,66.1,52.7,29.90,SSE,155,2.0,2.0,62,0.00,CLR,SKC,0.00,WeatherDisplay:10.37,2013-09-09 18:13:00,
2013-09-09 12:18:00,66.6,52.3,29.90,WSW,250,1.1,1.1,60,0.00,CLR,SKC,0.00,WeatherDisplay:10.37,2013-09-09 18:18:00,
2013-09-09 12:23:00,66.8,51.5,29.90,SSE,165,2.3,2.3,58,0.00,CLR,SKC,0.00,WeatherDisplay:10.37,2013-09-09 18:23:00,
2013-09-09 12:27:00,66.6,51.8,29.90,SSW,209,1.1,1.1,59,0.00,CLR,SKC,0.00,WeatherDisplay:10.37,2013-09-09 18:27:00,
2013-09-09 12:32:00,66.3,51.1,29.90,WSW,254,1.1,1.1,58,0.00,CLR,SKC,0.00,WeatherDisplay:10.37,2013-09-09 18:32:00,
2013-09-09 12:37:00,66.2,51.9,29.90,SSE,166,2.3,2.3,60,0.00,CLR,SKC,0.00,WeatherDisplay:10.37,2013-09-09 18:37:00,
2013-09-09 12:42:00,66.4,51.2,29.89,South,171,2.3,2.3,58,0.00,CLR,SKC,0.00,WeatherDisplay:10.37,2013-09-09 18:42:00,
2013-09-09 12:48:00,66.6,52.3,29.89,South,184,0.0,0.1,60,0.00,CLR,SKC,0.00,WeatherDisplay:10.37,2013-09-09 18:48:00,
2013-09-09 12:53:00,67.4,52.6,29.89,SSE,160,3.5,3.5,59,0.00,CLR,SKC,0.00,WeatherDisplay:10.37,2013-09-09 18:53:00,
2013-09-09 12:58:00,68.3,52.9,29.88,SW,214,3.5,3.5,58,0.00,CLR,SKC,0.00,WeatherDisplay:10.37,2013-09-09 18:58:00,
2013-09-09 13:03:00,68.5,51.2,29.88,SW,230,4.6,4.6,54,0.00,CLR,SKC,0.00,WeatherDisplay:10.37,2013-09-09 19:03:00,
2013-09-09 13:09:00,68.6,52.8,29.88,South,174,2.3,2.3,57,0.00,CLR,SKC,0.00,WeatherDisplay:10.37,2013-09-09 19:09:00,
2013-09-09 13:14:00,69.1,51.8,29.88,SSW,198,1.1,1.1,54,0.00,CLR,SKC,0.00,WeatherDisplay:10.37,2013-09-09 19:14:00,
2013-09-09 13:19:00,69.4,51.0,29.87,SW,216,3.5,3.5,52,0.00,CLR,SKC,0.00,WeatherDisplay:10.37,2013-09-09 19:19:00,
2013-09-09 13:24:00,69.8,51.9,29.87,SSW,205,3.5,3.5,53,0.00,CLR,SKC,0.00,WeatherDisplay:10.37,2013-09-09 19:24:00,
2013-09-09 13:29:00,70.5,52.5,29.87,SSW,198,1.1,1.1,53,0.00,CLR,SKC,0.00,WeatherDisplay:10.37,2013-09-09 19:29:00,
2013-09-09 13:34:00,70.9,51.9,29.86,SSE,151,2.3,2.3,51,0.00,CLR,SKC,0.00,WeatherDisplay:10.37,2013-09-09 19:34:00,
2013-09-09 13:39:00,71.4,52.9,29.86,South,183,2.3,2.3,52,0.00,CLR,SKC,0.00,WeatherDisplay:10.37,2013-09-09 19:39:00,
2013-09-09 13:44:00,71.9,52.8,29.86,SW,219,3.5,3.5,51,0.00,CLR,SKC,0.00,WeatherDisplay:10.37,2013-09-09 19:44:00,
2013-09-09 13:49:00,72.1,50.8,29.85,SE,125,2.3,2.3,47,0.00,CLR,SKC,0.00,WeatherDisplay:10.37,2013-09-09 19:49:00,
2013-09-09 13:54:00,72.5,51.1,29.85,South,184,3.5,3.5,47,0.00,CLR,SKC,0.00,WeatherDisplay:10.37,2013-09-09 19:54:00,
2013-09-09 13:59:00,72.6,50.6,29.85,SSE,161,1.1,0.0,46,0.00,CLR,SKC,0.00,WeatherDisplay:10.37,2013-09-09 19:59:00,
2013-09-09 14:04:00,72.9,52.6,29.84,SE,146,1.1,1.1,49,0.00,CLR,SKC,0.00,WeatherDisplay:10.37,2013-09-09 20:04:00,
2013-09-09 14:10:00,73.0,51.6,29.84,South,176,3.5,3.5,47,0.00,CLR,SKC,0.00,WeatherDisplay:10.37,2013-09-09 20:10:00,
2013-09-09 14:15:00,73.1,51.1,29.84,SE,140,2.3,2.3,46,0.00,CLR,SKC,0.00,WeatherDisplay:10.37,2013-09-09 20:15:00,
2013-09-09 14:20:00,73.3,51.8,29.84,South,172,1.1,1.1,47,0.00,CLR,SKC,0.00,WeatherDisplay:10.37,2013-09-09 20:20:00,
2013-09-09 14:25:00,73.8,51.1,29.83,NE,42,1.1,1.1,45,0.00,CLR,SKC,0.00,WeatherDisplay:10.37,2013-09-09 20:25:00,
2013-09-09 14:30:00,74.3,52.8,29.83,ESE,119,1.1,1.1,47,0.00,CLR,SKC,0.00,WeatherDisplay:10.37,2013-09-09 20:30:00,
2013-09-09 14:35:00,74.6,51.9,29.83,SSW,207,2.3,2.3,45,0.00,CLR,SKC,0.00,WeatherDisplay:10.37,2013-09-09 20:35:00,
2013-09-09 14:40:00,74.5,50.5,29.83,ENE,66,3.5,3.5,43,0.00,CLR,SKC,0.00,WeatherDisplay:10.37,2013-09-09 20:40:00,
2013-09-09 14:46:00,74.2,50.9,29.83,SSW,206,2.3,2.3,44,0.00,CLR,SKC,0.00,WeatherDisplay:10.37,2013-09-09 20:46:00,
2013-09-09 14:51:00,74.5,51.2,29.82,SSW,198,3.5,3.5,44,0.00,CLR,SKC,0.00,WeatherDisplay:10.37,2013-09-09 20:51:00,
2013-09-09 14:56:00,74.7,52.5,29.82,SW,215,3.5,3.5,46,0.00,CLR,SKC,0.00,WeatherDisplay:10.37,2013-09-09 20:56:00,
2013-09-09 15:01:00,74.8,50.8,29.82,South,174,2.3,2.3,43,0.00,CLR,SKC,0.00,WeatherDisplay:10.37,2013-09-09 21:01:00,
2013-09-09 15:06:00,74.7,51.3,29.82,South,171,3.5,3.5,44,0.00,CLR,SKC,0.00,WeatherDisplay:10.37,2013-09-09 21:06:00,
2013-09-09 15:11:00,74.8,52.0,29.82,WSW,239,3.5,3.5,45,0.00,CLR,SKC,0.00,WeatherDisplay:10.37,2013-09-09 21:11:00,
2013-09-09 15:16:00,74.6,50.6,29.82,SSW,198,3.5,3.5,43,0.00,CLR,SKC,0.00,WeatherDisplay:10.37,2013-09-09 21:16:00,
2013-09-09 15:21:00,74.6,50.6,29.81,SSE,162,2.0,2.0,43,0.00,CLR,SKC,0.00,WeatherDisplay:10.37,2013-09-09 21:21:00,
2013-09-09 15:26:00,74.8,50.8,29.82,WSW,237,3.5,3.5,43,0.00,CLR,SKC,0.00,WeatherDisplay:10.37,2013-09-09 21:26:00,
2013-09-09 15:31:00,75.5,52.1,29.81,SW,231,1.1,1.1,44,0.00,CLR,SKC,0.00,WeatherDisplay:10.37,2013-09-09 21:31:00,
2013-09-09 15:36:00,75.7,51.6,29.81,South,183,1.1,1.1,43,0.00,CLR,SKC,0.00,WeatherDisplay:10.37,2013-09-09 21:36:00,
2013-09-09 15:41:00,75.6,52.1,29.81,South,173,3.5,3.5,44,0.00,CLR,SKC,0.00,WeatherDisplay:10.37,2013-09-09 21:41:00,
2013-09-09 15:46:00,75.5,51.4,29.81,SSW,195,1.0,3.0,43,0.00,CLR,SKC,0.00,WeatherDisplay:10.37,2013-09-09 21:46:00,
2013-09-09 15:52:00,75.3,51.3,29.81,South,183,2.3,2.3,43,0.00,CLR,SKC,0.00,WeatherDisplay:10.37,2013-09-09 21:52:00,
2013-09-09 15:57:00,75.7,51.0,29.81,SSE,167,2.3,2.3,42,0.00,CLR,SKC,0.00,WeatherDisplay:10.37,2013-09-09 21:57:00,
2013-09-09 16:02:00,75.7,49.7,29.81,NNE,28,3.5,3.5,40,0.00,CLR,SKC,0.00,WeatherDisplay:10.37,2013-09-09 22:02:00,
2013-09-09 16:07:00,75.7,49.7,29.81,NNE,28,1.1,1.1,40,0.00,CLR,SKC,0.00,WeatherDisplay:10.37,2013-09-09 22:07:00,
2013-09-09 16:12:00,76.0,49.9,29.81,ENE,67,1.1,1.1,40,0.00,CLR,SKC,0.00,WeatherDisplay:10.37,2013-09-09 22:12:00,
2013-09-09 16:17:00,75.9,49.8,29.81,East,94,0.0,0.1,40,0.00,CLR,SKC,0.00,WeatherDisplay:10.37,2013-09-09 22:17:00,
2013-09-09 16:22:00,76.3,52.2,29.81,SSW,193,2.3,2.3,43,0.00,CLR,SKC,0.00,WeatherDisplay:10.37,2013-09-09 22:22:00,
2013-09-09 16:27:00,76.4,50.3,29.80,WSW,238,3.5,3.5,40,0.00,CLR,SKC,0.00,WeatherDisplay:10.37,2013-09-09 22:27:00,
2013-09-09 16:32:00,76.2,50.1,29.80,South,186,1.1,0.0,40,0.00,CLR,SKC,0.00,WeatherDisplay:10.37,2013-09-09 22:32:00,
2013-09-09 16:37:00,76.4,49.6,29.80,WNW,284,3.5,3.5,39,0.00,CLR,SKC,0.00,WeatherDisplay:10.37,2013-09-09 22:37:00,
2013-09-09 16:42:00,76.7,51.9,29.80,SW,227,2.3,2.3,42,0.00,CLR,SKC,0.00,WeatherDisplay:10.37,2013-09-09 22:42:00,
2013-09-09 16:47:00,76.6,49.8,29.80,SW,226,2.3,2.3,39,0.00,CLR,SKC,0.00,WeatherDisplay:10.37,2013-09-09 22:47:00,
2013-09-09 16:52:00,76.9,51.4,29.80,SW,234,1.1,1.1,41,0.00,CLR,SKC,0.00,WeatherDisplay:10.37,2013-09-09 22:52:00,
2013-09-09 16:57:00,76.6,49.8,29.80,SW,230,1.1,1.1,39,0.00,CLR,SKC,0.00,WeatherDisplay:10.37,2013-09-09 22:57:00,
2013-09-09 17:03:00,76.3,50.2,29.80,SSW,206,2.3,2.3,40,0.00,CLR,SKC,0.00,WeatherDisplay:10.37,2013-09-09 23:03:00,
2013-09-09 17:07:00,76.2,50.8,29.80,SW,236,3.5,3.5,41,0.00,CLR,SKC,0.00,WeatherDisplay:10.37,2013-09-09 23:07:00,
2013-09-09 17:12:00,76.3,51.5,29.80,SW,218,1.1,1.1,42,0.00,CLR,SKC,0.00,WeatherDisplay:10.37,2013-09-09 23:12:00,
2013-09-09 17:17:00,76.0,50.6,29.80,SSW,202,3.5,3.5,41,0.00,CLR,SKC,0.00,WeatherDisplay:10.37,2013-09-09 23:17:00,
2013-09-09 17:22:00,75.4,51.3,29.79,SSW,202,0.0,0.0,43,0.00,CLR,SKC,0.00,WeatherDisplay:10.37,2013-09-09 23:22:00,
2013-09-09 17:27:00,74.1,51.4,29.79,South,175,1.0,1.0,45,0.00,CLR,SKC,0.00,WeatherDisplay:10.37,2013-09-09 23:27:00,
2013-09-09 17:32:00,73.9,53.5,29.79,South,175,1.1,1.1,49,0.00,CLR,SKC,0.00,WeatherDisplay:10.37,2013-09-09 23:32:00,
2013-09-09 17:38:00,73.0,53.3,29.79,South,174,0.0,0.0,50,0.00,CLR,SKC,0.00,WeatherDisplay:10.37,2013-09-09 23:38:00,
2013-09-09 17:43:00,72.4,54.8,29.79,South,174,1.0,0.0,54,0.00,CLR,SKC,0.00,WeatherDisplay:10.37,2013-09-09 23:43:00,
2013-09-09 17:48:00,71.5,55.0,29.79,South,174,0.0,0.0,56,0.00,CLR,SKC,0.00,WeatherDisplay:10.37,2013-09-09 23:48:00,
2013-09-09 17:53:00,70.8,56.2,29.79,South,174,0.0,0.0,60,0.00,CLR,SKC,0.00,WeatherDisplay:10.37,2013-09-09 23:53:00,
2013-09-09 17:59:00,69.8,56.6,29.79,South,174,0.0,0.0,63,0.00,CLR,SKC,0.00,WeatherDisplay:10.37,2013-09-09 23:59:00,
2013-09-09 18:04:00,69.2,56.9,29.79,South,174,0.0,0.0,65,0.00,CLR,SKC,0.00,WeatherDisplay:10.37,2013-09-10 00:04:00,
2013-09-09 18:09:00,68.4,56.6,29.79,South,174,0.0,0.0,66,0.00,CLR,SKC,0.00,WeatherDisplay:10.37,2013-09-10 00:09:00,
2013-09-09 18:14:00,68.0,57.0,29.79,South,174,0.0,0.0,68,0.00,CLR,SKC,0.00,WeatherDisplay:10.37,2013-09-10 00:14:00,
2013-09-09 18:19:00,67.9,56.9,29.79,South,175,0.0,0.0,68,0.00,CLR,SKC,0.00,WeatherDisplay:10.37,2013-09-10 00:19:00,
2013-09-09 18:24:00,68.1,57.5,29.79,South,174,0.0,0.0,69,0.00,CLR,SKC,0.00,WeatherDisplay:10.37,2013-09-10 00:24:00,
2013-09-09 18:29:00,68.0,57.8,29.79,South,174,0.0,0.0,70,0.00,CLR,SKC,0.00,WeatherDisplay:10.37,2013-09-10 00:29:00,
2013-09-09 18:34:00,67.4,57.7,29.79,South,175,0.0,0.0,71,0.00,CLR,SKC,0.00,WeatherDisplay:10.37,2013-09-10 00:34:00,
2013-09-09 18:39:00,66.5,56.8,29.79,South,175,0.0,0.0,71,0.00,CLR,SKC,0.00,WeatherDisplay:10.37,2013-09-10 00:39:00,
2013-09-09 18:44:00,65.8,56.1,29.79,South,174,0.0,0.0,71,0.00,CLR,SKC,0.00,WeatherDisplay:10.37,2013-09-10 00:44:00,
2013-09-09 18:49:00,65.1,56.2,29.79,South,175,0.0,0.0,73,0.00,CLR,SKC,0.00,WeatherDisplay:10.37,2013-09-10 00:49:00,
2013-09-09 18:55:00,64.5,56.4,29.79,South,174,0.0,0.0,75,0.00,CLR,SKC,0.00,WeatherDisplay:10.37,2013-09-10 00:55:00,
2013-09-09 19:00:00,64.0,56.3,29.79,South,174,0.0,0.0,76,0.00,CLR,SKC,0.00,WeatherDisplay:10.37,2013-09-10 01:00:00,
2013-09-09 19:05:00,63.5,56.2,29.79,South,174,0.0,0.0,77,0.00,CLR,SKC,0.00,WeatherDisplay:10.37,2013-09-10 01:05:00,
2013-09-09 19:10:00,63.0,56.0,29.79,South,175,0.0,0.0,78,0.00,CLR,SKC,0.00,WeatherDisplay:10.37,2013-09-10 01:10:00,
2013-09-09 19:15:00,62.5,55.2,29.79,South,175,0.0,0.0,77,0.00,CLR,SKC,0.00,WeatherDisplay:10.37,2013-09-10 01:15:00,
2013-09-09 19:21:00,62.1,54.8,29.79,South,174,0.0,0.0,77,0.00,CLR,SKC,0.00,WeatherDisplay:10.37,2013-09-10 01:21:00,
2013-09-09 19:26:00,61.8,55.2,29.79,South,174,0.0,0.0,79,0.00,CLR,SKC,0.00,WeatherDisplay:10.37,2013-09-10 01:26:00,
2013-09-09 19:31:00,61.4,54.8,29.80,South,175,0.0,0.0,79,0.00,CLR,SKC,0.00,WeatherDisplay:10.37,2013-09-10 01:31:00,
2013-09-09 19:36:00,61.2,54.3,29.80,South,174,0.0,0.0,78,0.00,CLR,SKC,0.00,WeatherDisplay:10.37,2013-09-10 01:36:00,
2013-09-09 19:41:00,61.2,54.6,29.80,South,175,0.0,0.0,79,0.00,CLR,SKC,0.00,WeatherDisplay:10.37,2013-09-10 01:41:00,
2013-09-09 19:46:00,61.1,54.2,29.80,South,174,0.0,0.0,78,0.00,CLR,SKC,0.00,WeatherDisplay:10.37,2013-09-10 01:46:00,
2013-09-09 19:51:00,60.9,54.0,29.80,South,174,0.0,0.0,78,0.00,CLR,SKC,0.00,WeatherDisplay:10.37,2013-09-10 01:51:00,
2013-09-09 19:56:00,60.7,54.1,29.80,South,175,0.0,0.0,79,0.00,CLR,SKC,0.00,WeatherDisplay:10.37,2013-09-10 01:56:00,
2013-09-09 20:01:00,60.4,53.5,29.80,South,174,0.0,0.0,78,0.00,CLR,SKC,0.00,WeatherDisplay:10.37,2013-09-10 02:01:00,
2013-09-09 20:06:00,60.2,53.7,29.80,South,174,0.0,0.0,79,0.00,CLR,SKC,0.00,WeatherDisplay:10.37,2013-09-10 02:06:00,
2013-09-09 20:11:00,60.0,53.1,29.80,South,174,0.0,0.0,78,0.00,CLR,SKC,0.00,WeatherDisplay:10.37,2013-09-10 02:11:00,
2013-09-09 20:16:00,59.8,52.2,29.80,South,180,0.0,0.0,76,0.00,CLR,SKC,0.00,WeatherDisplay:10.37,2013-09-10 02:16:00,
2013-09-09 20:22:00,60.0,52.0,29.80,South,180,0.0,0.0,75,0.00,CLR,SKC,0.00,WeatherDisplay:10.37,2013-09-10 02:22:00,
2013-09-09 20:27:00,60.5,52.1,29.80,SW,214,0.0,1.0,74,0.00,CLR,SKC,0.00,WeatherDisplay:10.37,2013-09-10 02:27:00,
2013-09-09 20:32:00,60.9,51.4,29.80,West,270,0.0,0.0,71,0.00,CLR,SKC,0.00,WeatherDisplay:10.37,2013-09-10 02:32:00,
2013-09-09 20:37:00,61.1,51.6,29.80,West,270,1.1,0.0,71,0.00,CLR,SKC,0.00,WeatherDisplay:10.37,2013-09-10 02:37:00,
2013-09-09 20:42:00,61.3,50.6,29.81,West,270,0.0,0.0,68,0.00,CLR,SKC,0.00,WeatherDisplay:10.37,2013-09-10 02:42:00,
2013-09-09 20:47:00,61.9,51.2,29.81,NW,313,0.0,0.0,68,0.00,CLR,SKC,0.00,WeatherDisplay:10.37,2013-09-10 02:47:00,
2013-09-09 20:52:00,62.1,51.4,29.81,NW,313,0.0,0.0,68,0.00,CLR,SKC,0.00,WeatherDisplay:10.37,2013-09-10 02:52:00,
2013-09-09 20:57:00,62.2,51.1,29.81,NW,313,0.0,0.0,67,0.00,CLR,SKC,0.00,WeatherDisplay:10.37,2013-09-10 02:57:00,
2013-09-09 21:02:00,62.3,50.8,29.81,NW,313,1.1,1.1,66,0.00,CLR,SKC,0.00,WeatherDisplay:10.37,2013-09-10 03:02:00,
2013-09-09 21:08:00,62.5,50.6,29.81,SW,218,1.0,1.0,65,0.00,CLR,SKC,0.00,WeatherDisplay:10.37,2013-09-10 03:08:00,
2013-09-09 21:14:00,62.7,50.3,29.81,SW,218,0.0,0.0,64,0.00,CLR,SKC,0.00,WeatherDisplay:10.37,2013-09-10 03:14:00,
2013-09-09 21:19:00,62.9,50.5,29.82,WSW,242,0.0,0.0,64,0.00,CLR,SKC,0.00,WeatherDisplay:10.37,2013-09-10 03:19:00,
2013-09-09 21:24:00,63.1,50.3,29.82,NW,306,1.1,0.0,63,0.00,CLR,SKC,0.00,WeatherDisplay:10.37,2013-09-10 03:24:00,
2013-09-09 21:29:00,63.2,50.0,29.82,NW,306,0.0,0.0,62,0.00,CLR,SKC,0.00,WeatherDisplay:10.37,2013-09-10 03:29:00,
2013-09-09 21:34:00,63.2,50.0,29.82,North,5,0.0,0.0,62,0.00,CLR,SKC,0.00,WeatherDisplay:10.37,2013-09-10 03:34:00,
2013-09-09 21:39:00,62.9,50.1,29.82,North,5,0.0,0.0,63,0.00,CLR,SKC,0.00,WeatherDisplay:10.37,2013-09-10 03:39:00,
2013-09-09 21:44:00,62.6,50.2,29.82,NE,55,0.0,0.0,64,0.00,CLR,SKC,0.00,WeatherDisplay:10.37,2013-09-10 03:44:00,
2013-09-09 21:48:00,62.3,50.0,29.82,NE,55,0.0,0.0,64,0.00,CLR,SKC,0.00,WeatherDisplay:10.37,2013-09-10 03:48:00,
2013-09-09 21:53:00,62.0,49.7,29.82,NE,55,0.0,0.0,64,0.00,CLR,SKC,0.00,WeatherDisplay:10.37,2013-09-10 03:53:00,
2013-09-09 21:58:00,62.0,49.3,29.83,NE,55,0.0,0.0,63,0.00,CLR,SKC,0.00,WeatherDisplay:10.37,2013-09-10 03:58:00,
2013-09-09 22:01:00,62.1,49.4,29.82,NE,55,0.0,0.0,63,0.00,CLR,SKC,0.00,WeatherDisplay:10.37,2013-09-10 04:01:00,
2013-09-09 22:02:00,62.1,49.4,29.82,East,94,0.0,0.0,63,0.00,CLR,SKC,0.00,WeatherDisplay:10.37,2013-09-10 04:02:00,
2013-09-09 22:04:00,62.1,49.8,29.83,East,94,0.0,0.0,64,0.00,CLR,SKC,0.00,WeatherDisplay:10.37,2013-09-10 04:04:00,
2013-09-09 22:07:00,62.1,49.4,29.83,East,94,0.0,0.0,63,0.00,CLR,SKC,0.00,WeatherDisplay:10.37,2013-09-10 04:07:00,
2013-09-09 22:10:00,62.1,49.4,29.83,East,94,0.0,0.0,63,0.00,CLR,SKC,0.00,WeatherDisplay:10.37,2013-09-10 04:10:00,
2013-09-09 22:15:00,62.0,49.3,29.83,East,94,0.0,0.0,63,0.00,CLR,SKC,0.00,WeatherDisplay:10.37,2013-09-10 04:15:00,
2013-09-09 22:20:00,61.9,49.6,29.83,East,94,0.0,0.0,64,0.00,CLR,SKC,0.00,WeatherDisplay:10.37,2013-09-10 04:20:00,
2013-09-09 22:21:00,61.9,49.6,29.83,East,94,0.0,0.0,64,0.00,CLR,SKC,0.00,WeatherDisplay:10.37,2013-09-10 04:21:00,
2013-09-09 22:26:00,61.7,49.4,29.83,East,94,0.0,0.0,64,0.00,CLR,SKC,0.00,WeatherDisplay:10.37,2013-09-10 04:26:00,
2013-09-09 22:31:00,61.3,49.4,29.83,East,94,0.0,0.0,65,0.00,CLR,SKC,0.00,WeatherDisplay:10.37,2013-09-10 04:31:00,
2013-09-09 22:36:00,60.9,50.7,29.83,East,101,0.0,0.1,69,0.00,CLR,SKC,0.00,WeatherDisplay:10.37,2013-09-10 04:36:00,
2013-09-09 22:41:00,60.4,49.4,29.83,ESE,103,0.0,0.0,67,0.00,CLR,SKC,0.00,WeatherDisplay:10.37,2013-09-10 04:41:00,
2013-09-09 22:46:00,60.2,50.0,29.83,ESE,103,0.0,0.0,69,0.00,CLR,SKC,0.00,WeatherDisplay:10.37,2013-09-10 04:46:00,
2013-09-09 22:51:00,59.7,49.9,29.83,ESE,103,0.0,0.0,70,0.00,CLR,SKC,0.00,WeatherDisplay:10.37,2013-09-10 04:51:00,
2013-09-09 22:57:00,58.9,50.3,29.84,ESE,103,0.0,0.0,73,0.00,CLR,SKC,0.00,WeatherDisplay:10.37,2013-09-10 04:57:00,
2013-09-09 23:02:00,58.3,50.8,29.84,ESE,103,0.0,0.0,76,0.00,CLR,SKC,0.00,WeatherDisplay:10.37,2013-09-10 05:02:00,
2013-09-09 23:07:00,57.6,50.1,29.84,ESE,103,0.0,0.1,76,0.00,CLR,SKC,0.00,WeatherDisplay:10.37,2013-09-10 05:07:00,
2013-09-09 23:13:00,56.8,50.0,29.84,SE,145,1.1,1.1,78,0.00,CLR,SKC,0.00,WeatherDisplay:10.37,2013-09-10 05:13:00,
2013-09-09 23:18:00,56.3,50.2,29.84,SE,145,0.0,0.0,80,0.00,CLR,SKC,0.00,WeatherDisplay:10.37,2013-09-10 05:18:00,
2013-09-09 23:24:00,55.9,50.2,29.85,SE,145,0.0,0.0,81,0.00,CLR,SKC,0.00,WeatherDisplay:10.37,2013-09-10 05:24:00,
2013-09-09 23:29:00,55.7,50.3,29.85,SE,145,0.0,0.0,82,0.00,CLR,SKC,0.00,WeatherDisplay:10.37,2013-09-10 05:29:00,
2013-09-09 23:34:00,55.6,50.2,29.85,SE,145,0.0,0.0,82,0.00,CLR,SKC,0.00,WeatherDisplay:10.37,2013-09-10 05:34:00,
2013-09-09 23:39:00,55.4,50.3,29.85,SE,145,0.0,0.0,83,0.00,CLR,SKC,0.00,WeatherDisplay:10.37,2013-09-10 05:39:00,
2013-09-09 23:44:00,55.0,49.9,29.85,SE,145,0.0,0.0,83,0.00,CLR,SKC,0.00,WeatherDisplay:10.37,2013-09-10 05:44:00,
2013-09-09 23:49:00,54.8,49.7,29.85,SE,145,0.0,0.0,83,0.00,CLR,SKC,0.00,WeatherDisplay:10.37,2013-09-10 05:49:00,
2013-09-09 23:54:00,54.5,49.8,29.85,SE,145,1.1,0.0,84,0.00,CLR,SKC,0.00,WeatherDisplay:10.37,2013-09-10 05:54:00,
2013-09-09 23:59:00,54.3,49.6,29.85,SE,145,0.0,0.0,84,0.00,CLR,SKC,0.00,WeatherDisplay:10.37,2013-09-10 05:59:00,